﻿STRMGAGEID,DATE_TIME,AVG_DISCHARGE,STDDEV_DISCHARGE,MIN_DISCHARGE,MAX_DISCHARGE,N_DISCHARGE,TDAILY_DISCHARGE,AVG_TEMP,STDDEV_TEMP,MIN_TEMP,MAX_TEMP,N_TEMP,AVG_COND,STDDEV_COND,MIN_COND,MAX_COND,N_COND
andrsn_h1,11/20/93,,,,,0,,0.6,0.1,0.5,1,29,217.3,17,192.1,246.1,29
andrsn_h1,11/21/93,0.9,1.3,0,4.79,35,26829,0.8,0.5,0.2,2.1,42,271.7,38.3,162.39,338.29,42
andrsn_h1,11/22/93,1.6,2.2,0.28,10.96,96,138699,0.4,0.1,0.2,0.9,96,126.9,33.6,54.2,224.7,96
andrsn_h1,11/23/93,1.4,2.7,0.08,11.07,96,120060,0.3,0,0.2,0.4,96,105.4,49.6,49.3,214.39,96
andrsn_h1,11/24/93,0.2,0,0.14,0.31,65,13833,0.2,0,0.2,0.3,65,168.7,9.2,153.7,182.5,65
andrsn_h1,11/25/93,,,,,0,,0.3,0.1,0.1,0.3,46,113.8,6.5,104,123,46
andrsn_h1,11/26/93,,,,,0,,0.3,0.1,0.1,0.3,46,102.6,15.2,70.9,135.7,46
andrsn_h1,11/27/93,,,,,0,,0.2,0.1,0.1,0.3,42,170,87.2,94.8,371.39,42
andrsn_h1,12/1/93,,,,,0,,0.4,0,0.3,0.5,48,68.2,14.6,39.1,88.5,48
andrsn_h1,12/2/93,,,,,0,,0.6,0.2,0.5,1.2,44,102.4,23.5,50.7,139.7,44
andrsn_h1,12/3/93,,,,,0,,0.8,0.4,0.5,1.7,32,100.7,22,71.6,144.2,32
andrsn_h1,12/4/93,,,,,0,,1,0.2,0.7,1.4,17,122.4,14.7,109.8,150.1,17
andrsn_h1,12/5/93,,,,,0,,0.5,0.1,0.4,0.6,9,115.3,65.6,67.2,211.3,9
andrsn_h1,12/6/93,,,,,0,,0.4,0,0.4,0.4,3,51.9,6.8,47.3,59.7,3
andrsn_h1,12/7/93,,,,,0,,0.5,0.1,0.4,0.6,15,65.9,23,42.1,122.5,15
andrsn_h1,12/9/93,0.4,0.2,0.28,1.08,38,12816,1.2,0.4,0.6,2,49,75.8,12.5,50.6,105.2,49
andrsn_h1,12/10/93,0.6,0.4,0.06,1.9,96,56097,1,0.5,0.6,2,96,85.6,22.5,46.3,128.3,96
andrsn_h1,12/11/93,1.3,0.7,0.28,3.48,96,115524,1.4,0.8,0.6,3.9,96,92.3,19.3,55.3,121.6,96
andrsn_h1,12/12/93,3,0.8,1.3,4.3,96,255600,1.1,0.9,0.4,3.8,96,69.3,6,55.3,78.1,96
andrsn_h1,12/13/93,2.8,0.5,1.7,3.85,68,171270,1.2,0.5,0.5,2.1,96,85.3,3,79,90.2,96
andrsn_h1,12/14/93,,,,,0,,1.2,0.7,0.5,2.6,96,93.6,3.2,88.2,98.3,96
andrsn_h1,12/15/93,,,,,0,,1.7,1.5,0.6,5.9,96,92.7,20.7,54.2,120.8,96
andrsn_h1,12/16/93,,,,,0,,1.3,0.2,0.6,1.8,96,51.7,3.1,45.9,58.1,96
andrsn_h1,12/17/93,,,,,0,,1.3,0.3,1.1,2.1,96,40.8,4.5,34.5,49.4,96
andrsn_h1,12/18/93,,,,,0,,1.1,0,1.1,1.3,96,46.3,7.5,36.2,57,96
andrsn_h1,12/19/93,2.3,1,0.99,4.45,37,77877,1.8,0.8,0.9,3.8,96,65.5,3.1,56.9,70.2,96
andrsn_h1,12/20/93,1.6,1.1,0.54,4.36,96,135189,1.1,0.5,0.4,1.9,96,72.1,6.2,62.2,84.6,96
andrsn_h1,12/21/93,0.2,0.2,0.03,0.85,96,20970,1.8,1,0.4,3.5,96,125.9,17.7,84.6,141.89,96
andrsn_h1,12/22/93,0.2,0.1,0.11,1.05,96,18189,1.6,0.5,0.6,2.9,96,139.9,13.8,71.9,149.8,96
andrsn_h1,12/23/93,0.3,0.2,0.14,0.99,96,24579,2.6,1.5,0.5,5.2,96,128.4,26.3,56.6,155.39,96
andrsn_h1,12/24/93,1.4,1.8,0.14,5.78,96,120609,2.4,1.5,0.5,5.6,96,132.4,42.9,53,175.39,96
andrsn_h1,12/25/93,3.1,3.7,0.31,11.27,96,269406,2.3,2.1,0.6,7.9,96,87.5,30.2,48.8,134.7,96
andrsn_h1,12/26/93,2.7,1.9,0.85,8.1,67,161874,1.5,1,0.6,4.3,96,63.3,16.4,39.2,102.2,96
andrsn_h1,12/27/93,,,,,0,,1.4,0.8,0.6,3.6,96,54.7,10.9,40.3,73.1,96
andrsn_h1,12/28/93,,,,,0,,1.1,0.5,0.6,1.9,96,58.3,9.4,40.4,73.2,96
andrsn_h1,12/29/93,,,,,0,,1.7,1,0.6,3.4,96,87.8,12.4,60.4,115.5,96
andrsn_h1,12/30/93,,,,,0,,1.4,0.7,0.6,2.9,96,72.6,18.4,40.2,107,96
andrsn_h1,12/31/93,,,,,0,,1.2,0.7,0.6,2.9,96,53.3,8.6,40,73.9,96
andrsn_h1,1/1/94,18,8.9,3.57,29.31,42,680922,1.2,0.8,0.6,3.5,96,54.9,8.7,42.5,70.1,96
andrsn_h1,1/2/94,46,36.3,13.22,118.05,96,3977910,1.5,0.5,0.9,2.7,96,44.5,8,31.4,53.1,96
andrsn_h1,1/3/94,51.1,18,36.95,109.84,96,4411206,1.4,0.4,0.8,2,96,34.9,2.6,31.3,39.2,96
andrsn_h1,1/4/94,40.8,14,21.69,64.34,96,3527010,1.5,0.6,0.9,2.7,96,23.5,2.4,19.3,31.5,96
andrsn_h1,1/5/94,52.7,19.7,30.1,90.13,96,4553208,1.2,0.3,0.9,1.9,96,22.8,1.7,19.1,24.9,96
andrsn_h1,1/6/94,51.3,10.6,35.11,88.01,96,4428711,1.2,0.3,0.9,1.9,96,22.9,1.2,20.5,24.8,96
andrsn_h1,1/7/94,39.6,8.1,25.91,57.68,96,3419874,1.1,0.3,0.9,1.7,96,23.5,1.3,21.4,25.4,96
andrsn_h1,1/8/94,32.7,9.4,18.29,54.51,96,2826045,1.1,0.3,0.9,1.7,96,26.5,1.8,23.2,28.7,96
andrsn_h1,1/9/94,30.8,8.7,16.42,48.51,96,2661759,1.2,0.3,0.9,1.7,96,30.9,2,28.1,33.7,96
andrsn_h1,1/10/94,39.6,14.9,21.44,77.87,96,3423069,1,0.3,0.4,1.8,96,29.7,1.7,25.8,35.7,96
andrsn_h1,1/11/94,28.3,7.1,17.41,48.62,96,2442897,0.6,0.3,0.3,1.3,96,41.5,7.1,28,50.1,96
andrsn_h1,1/12/94,22.1,9.7,8.3,44.26,96,1905444,0.6,0.3,0.3,1.4,96,60.8,5,49.8,67,96
andrsn_h1,1/13/94,15.8,5.8,8.47,34.91,96,1366551,0.7,0.2,0.5,1.3,96,68.2,6,57.8,75.2,96
andrsn_h1,1/14/94,4.8,2.5,1.76,11.27,96,411966,0.7,0.1,0.6,1,96,84.9,5,76.8,96.3,96
andrsn_h1,1/15/94,6.4,6.8,0.03,23.39,96,555840,0.9,0.6,0.4,3.6,96,94.5,19.3,63.5,117.5,96
andrsn_h1,1/16/94,7.8,2.8,4.02,18.52,96,673812,0.5,0.3,0.2,1.1,96,94.3,16.6,68.1,119.8,96
andrsn_h1,1/17/94,6.4,2,2.27,11.86,96,553977,0.7,0.5,0.2,1.8,96,123.8,5.8,106.1,130.7,96
andrsn_h1,1/18/94,10.3,8.3,0.31,29.48,96,886320,0.3,0.2,0.2,0.8,96,99.4,29.2,53.5,140.6,96
andrsn_h1,1/19/94,13.1,4.4,4.87,27.3,96,1129419,0.3,0.1,0.2,0.7,96,70,12.4,52.4,100.2,96
andrsn_h1,1/20/94,7.6,2,3.65,14.02,96,654597,0.4,0.2,0.2,0.8,96,97.2,11.3,68.4,110.7,96
andrsn_h1,1/21/94,5.6,2.5,2.8,12.4,96,482859,0.4,0.3,0.1,1.5,96,114.8,6.3,101.2,125.2,96
andrsn_h1,1/22/94,4.4,4.4,0,18.75,96,381096,0.4,0.5,0.1,2.3,96,111.4,16.1,88,137.3,96
andrsn_h1,1/23/94,5.7,5.7,0.08,25.66,96,495090,0.3,0.3,0.1,1.5,96,97.7,19.2,64.2,120.9,96
andrsn_h1,1/24/94,4.2,2.4,0,9.32,96,361656,0.2,0.1,0.1,0.7,48,97.5,6.7,80.1,103.9,48
andrsn_h1,1/25/94,3.5,0,3.45,3.45,1,3105,,,,,0,,,,,0
andrsn_h1,12/6/94,,,,,0,,0,0,0,0,38,33.8,8.8,18,47.6,38
andrsn_h1,12/7/94,,,,,0,,0,0.1,0,1.2,96,44.4,10.8,14.7,69.1,96
andrsn_h1,12/8/94,,,,,0,,0.6,0.1,0.5,1,12,77.2,19.6,16.9,89.8,12
andrsn_h1,12/9/94,,,,,0,,2.2,0.6,1.1,2.8,16,54.1,27.6,34,125.5,16
andrsn_h1,12/10/94,,,,,0,,1.6,0.6,0.4,2.7,53,70.3,24.5,38.3,160.39,53
andrsn_h1,12/11/94,,,,,0,,0.9,1.2,0,4.2,96,69.9,20.7,38.4,109.2,96
andrsn_h1,12/12/94,,,,,0,,0.7,0.8,0,2.6,96,62.7,10.6,40.5,81.8,96
andrsn_h1,12/13/94,,,,,0,,0.3,0.3,0,1.7,96,43.6,4.7,37.4,52.3,96
andrsn_h1,12/14/94,,,,,0,,0.4,0.4,0,1.4,96,45.5,3.5,38.9,50.8,96
andrsn_h1,12/15/94,2.5,0.6,1.95,4.87,26,57744,0.6,0.5,0,1.6,96,58.9,6.5,49.7,69.8,96
andrsn_h1,12/16/94,1.3,0.3,0.88,1.98,96,110574,1,0.9,0,2.9,96,62.1,7.8,52.6,81,96
andrsn_h1,12/17/94,0.6,0.1,0.42,0.99,96,55458,0.7,0.8,0,2.8,96,88.6,4.1,81.3,97.9,96
andrsn_h1,12/18/94,0.4,0.1,0.14,0.65,96,37818,1.4,1.1,0,3.3,96,94.5,14.8,69.7,110.1,96
andrsn_h1,12/19/94,1.6,1.1,0.23,3.82,96,139842,1,1.2,0,3.9,96,100.5,33.1,38.2,142,96
andrsn_h1,12/20/94,1.9,0.9,0.96,4.81,96,162828,0.6,0.7,0,2.9,96,57.1,8.7,38.9,67.4,96
andrsn_h1,12/21/94,1,0.1,0.82,1.13,96,85302,0.6,0.8,0,2.2,96,64.7,1.5,61.8,68.8,96
andrsn_h1,12/22/94,0.9,0.2,0.57,1.33,96,79893,0.9,1.1,0,3.3,96,70.9,1.5,67.8,74.5,96
andrsn_h1,12/23/94,1.1,0.4,0.85,2.61,96,97677,0.8,1.1,0,4.1,96,77.6,2.1,74.5,82.8,96
andrsn_h1,12/24/94,0.9,0.1,0.62,1.13,96,78687,0.5,0.6,0,2.2,96,91.1,4.3,82.3,99.5,96
andrsn_h1,12/25/94,0.8,0.2,0.48,1.19,96,66294,0.3,0.5,0,2.2,96,96.8,3.5,91.8,103.6,96
andrsn_h1,12/26/94,0.8,0.7,0.03,3.14,96,69831,0.9,1.3,0,4.2,96,91.4,15.2,54.2,114.5,96
andrsn_h1,12/27/94,2.2,0.9,1.08,3.85,96,189360,1.2,1.1,0,3.4,96,69.4,6.1,52.8,77.7,96
andrsn_h1,12/28/94,1,0.5,0.28,2.27,96,89703,1.4,1.5,0.1,4.7,96,67.4,2.7,61.4,74.1,96
andrsn_h1,12/29/94,0.8,0.7,0.14,2.69,96,69066,1.5,1.6,0.1,5.6,96,73.4,6.6,53.9,79.6,96
andrsn_h1,12/30/94,4.4,4.6,0.42,14.53,96,377874,0.8,1.2,0,4.2,96,58.4,13.7,37.5,76.4,96
andrsn_h1,12/31/94,5.4,2.3,2.35,11.86,96,464301,0.5,0.4,0,1.8,96,51.2,4.2,38.4,57.2,96
andrsn_h1,1/1/95,9.2,10.1,0.82,29.39,96,795168,0.6,0.7,0,2.6,96,57.2,9,39.5,68.9,96
andrsn_h1,1/2/95,14.6,8,5.95,31.83,96,1265247,0.2,0.4,0,1.8,96,48.9,3.1,40.9,53.9,96
andrsn_h1,1/3/95,7,7.1,0.76,18.6,96,605394,0.2,0.3,0,1.4,96,58.9,3.3,53.9,65.2,96
andrsn_h1,1/4/95,0.6,0.2,0.28,1.13,96,49896,0.7,0.8,0,2.8,96,68.4,4.6,58.5,75.5,96
andrsn_h1,1/5/95,1.1,0.8,0.2,3,96,98361,0.8,1.1,0,4.2,96,58.7,7.6,42.6,69.1,96
andrsn_h1,1/6/95,1,0.2,0.71,1.47,96,88083,0.7,0.7,0,2.2,96,67.9,3.6,59.9,74.4,96
andrsn_h1,1/7/95,3.7,3.9,0.42,12.49,96,316197,0.7,1,0,3.4,96,65.5,19.4,33.2,93.6,96
andrsn_h1,1/8/95,7.7,5.4,1.76,20.13,96,667944,0.3,0.4,0,1.2,96,30.6,3.9,23.2,36.9,96
andrsn_h1,1/9/95,12.9,8.6,2.61,30.1,96,1112913,0.3,0.5,0,1.5,96,23.9,2.3,19.8,29.1,96
andrsn_h1,1/10/95,21.2,6.8,8.47,36.16,96,1832616,0.2,0.4,0,1.2,96,30.3,4.6,23.9,37.8,96
andrsn_h1,1/11/95,13.4,3.7,7.5,22.65,96,1156662,0.2,0.3,0,0.9,96,31.1,3.5,24.5,37.8,96
andrsn_h1,1/12/95,6.9,3,3.43,16.71,96,598707,0.1,0.2,0,0.8,96,49.4,19.1,30.2,82.8,96
andrsn_h1,1/13/95,4.5,1.8,1.95,9.2,96,391221,0.1,0.1,0,0.5,96,80.2,17.6,50.5,116.3,96
andrsn_h1,1/14/95,1.5,0.4,1.02,2.69,96,133173,0.3,0.6,0,2.5,96,114.9,7.7,91.4,124.4,96
andrsn_h1,1/15/95,2.4,1.8,0.71,9.32,96,205902,0.4,0.7,0,3.1,96,110.7,21.6,61.3,139.5,96
andrsn_h1,1/16/95,4.4,2.2,1.47,10.53,96,379305,0.4,0.6,0,2.9,96,100.5,23.4,60.1,133.3,96
andrsn_h1,1/17/95,4.5,2.9,1.1,13.82,96,386550,0.2,0.4,0,1.7,96,97.5,22.3,66.1,136.89,96
andrsn_h1,1/18/95,4.9,2.6,1.39,11.5,96,421911,0,0.1,0,0.8,96,70.4,9.8,54.4,90.2,96
andrsn_h1,1/19/95,3.2,1.8,1.16,10.25,96,273456,0.4,0.6,0,1.9,96,82.2,4.6,73,89.7,96
andrsn_h1,1/20/95,2.2,0.9,0.76,6.51,96,193437,0.1,0.3,0,1.4,96,84.5,13.7,50.8,101.2,96
andrsn_h1,1/21/95,3.8,3,1.44,14.33,96,328752,0.1,0.3,0,1.2,96,81.8,18.7,48.4,127.7,96
andrsn_h1,1/22/95,2.5,1.7,0.51,9.43,96,218484,0.1,0.3,0,1.2,96,71.3,20.3,37.4,102.1,96
andrsn_h1,1/23/95,2.3,0.8,0.42,3.71,96,202275,0.1,0.2,0,1.5,96,53.3,10.9,25.2,71.8,96
andrsn_h1,1/24/95,1.1,0.2,0.74,1.98,39,37665,0.1,0.2,0,1.3,96,66.1,7.5,56.5,84.5,96
andrsn_h1,1/25/95,2,0.6,0.76,3.23,40,72693,0.3,0.6,0,2,96,72.2,12.2,49.5,94.9,96
andrsn_h1,1/26/95,1.7,1.4,0.4,6.91,96,145197,0.5,0.9,0,3.6,96,74.7,15.4,55.2,97.8,96
andrsn_h1,1/27/95,3,3.2,0.14,19.54,96,257382,0.1,0.4,0,1.8,96,78.3,8.2,50,86,96
andrsn_h1,1/28/95,0.9,1.3,0.2,7.33,96,73755,0.3,0.4,0,1.5,96,93.1,3.9,85.3,100.1,96
andrsn_h1,1/29/95,2.3,1,0.08,3.94,96,198522,0.3,0.7,0,2.4,96,78.2,21.9,46.3,117,96
andrsn_h1,1/30/95,0.6,0.3,0.08,1.22,96,48186,0.3,0.8,0,3,96,91.1,16.2,45.9,105.4,96
andrsn_h1,1/31/95,0.3,0.1,0.08,0.42,75,20304,0.5,1.1,0,3.9,75,72,17.2,42.2,101.4,75
andrsn_h1,12/3/95,1.2,0.4,0.31,2.32,45,49779,0.4,1.1,0,4.2,95,57.8,15.7,33.4,91.2,95
andrsn_h1,12/4/95,1.4,0.3,0.79,2.66,34,41931,0.4,1,0,3.9,96,67.8,9.5,52.5,92.2,96
andrsn_h1,12/5/95,0.1,0,0.03,0.14,40,2340,0.6,0.7,0,2,96,53.7,17.7,31.3,95.4,96
andrsn_h1,12/6/95,0.7,0.4,0.03,1.67,57,35604,0.2,0.3,0,1,96,64.6,30.3,14.8,152.1,96
andrsn_h1,12/7/95,1.2,0.9,0.31,4.25,62,68778,0.6,0.7,0,2.4,96,53.5,1.7,49.9,56.9,96
andrsn_h1,12/8/95,4.5,3.4,0.54,17.9,43,172917,0.5,0.8,0.1,3.4,96,57.1,6.1,43,68.1,96
andrsn_h1,12/9/95,7.2,3.6,1.98,11.92,68,437679,0.4,0.5,0.1,2.1,96,47.4,11.3,30,65.9,96
andrsn_h1,12/10/95,11.6,3.7,6.57,17.9,96,999072,0.2,0.1,0.1,0.4,96,29.2,2.5,24.3,33.2,96
andrsn_h1,12/11/95,14.3,1.9,10.76,20.08,91,1171359,0.2,0.1,0.1,0.5,96,35,8.4,24.3,44.2,96
andrsn_h1,12/12/95,15.6,5.2,9.63,25.49,96,1344402,0.3,0.1,0.2,0.8,96,42.5,0.7,39.4,43.5,96
andrsn_h1,12/13/95,9.1,2.9,6.09,27.13,66,538137,0.7,0.3,0.3,1.7,96,41.8,3.1,33.5,45,96
andrsn_h1,12/14/95,6.2,1.9,2.66,15.8,96,534627,1.2,0.7,0.4,2.7,96,34,5.5,28.3,46.6,96
andrsn_h1,12/15/95,6.1,3.2,1.08,12.54,96,525294,1.1,0.8,0.4,3.2,96,45.6,5.8,33.2,53.5,96
andrsn_h1,12/16/95,7.2,2.4,3.03,13.17,95,616482,1.2,0.9,0.3,3.8,96,43.2,4.6,34.7,49.5,96
andrsn_h1,12/17/95,3.5,2.2,0.54,9.09,96,300447,0.6,0.3,0.3,1.3,96,39.8,5.2,35.2,50.6,96
andrsn_h1,12/18/95,0.5,0.5,0.06,1.67,96,45108,0.9,1.6,0,6.2,96,42.8,1.4,40.6,46.2,96
andrsn_h1,12/19/95,2.4,3,0.06,13.82,96,209700,0.6,1.3,0,5,96,46.3,6,36.8,59.1,96
andrsn_h1,12/20/95,5.7,5.5,0.79,15.8,96,490194,0.5,0.9,0,3.4,96,42.2,10.1,28.2,65.5,96
andrsn_h1,12/21/95,13,7.9,3.43,27.98,96,1126296,0.4,0.7,0,3.1,96,33.4,3.2,22.9,39,96
andrsn_h1,12/22/95,18.6,5.4,11.33,27.98,96,1609668,0.3,0.3,0.1,1,96,34.5,1.8,30.5,37.6,96
andrsn_h1,12/23/95,41.4,31.3,13.82,107.89,96,3578391,0.3,0.2,0.1,1.2,96,32.8,4.6,24.8,39.1,96
andrsn_h1,12/24/95,71,21.1,43.49,113.89,96,6136047,0.2,0.1,0.1,0.5,96,25.3,1.7,22.2,28,96
andrsn_h1,12/25/95,41.9,8.4,29.65,62.55,96,3621906,0.3,0.1,0.1,0.7,96,26.9,1.8,23.8,29.6,96
andrsn_h1,12/26/95,21.3,5.5,14.47,34.94,96,1841508,0.4,0.1,0.1,0.7,96,32.5,5,19.2,38.6,96
andrsn_h1,12/27/95,26.4,16.5,8.58,61.42,96,2284740,0.3,0.2,0.1,1,96,36.1,5.5,27.2,43.8,96
andrsn_h1,12/28/95,22.4,10.3,10.76,48.54,96,1936323,0.3,0.2,0.2,1.1,96,38.4,7.2,23.1,48,96
andrsn_h1,12/29/95,23.8,7.9,10.76,45.48,96,2052882,0.3,0.1,0.2,0.9,96,53,9,39.9,65.1,96
andrsn_h1,12/30/95,9,3.5,3.03,19.34,96,774477,0.6,0.7,0.2,3.7,96,53.8,14.5,24.8,71.8,96
andrsn_h1,12/31/95,11.8,10,1.98,30.53,96,1021374,0.7,0.9,0.2,4,96,45.2,16.4,22.6,69.3,96
andrsn_h1,1/1/96,6.5,6.3,0.79,27.98,96,558387,0.4,0.2,0.2,1,96,31.3,7.5,19,47.5,96
andrsn_h1,1/2/96,0.4,0.2,0.14,1.08,96,32517,0.9,0.8,0.2,2.9,96,55.7,13.2,40,83.8,96
andrsn_h1,1/3/96,0.2,0.1,0.06,0.54,96,13410,1,1.2,0.2,5.2,96,91.5,4.8,82.2,103.3,96
andrsn_h1,1/4/96,0.1,0.1,0.03,0.31,96,9990,1.4,1.8,0.2,5.5,96,94.4,5.2,85.4,109.4,96
andrsn_h1,1/5/96,0.2,0.2,0.03,1.36,96,15345,1.2,1.2,0.2,3.6,96,81.2,29,21.5,112.5,96
andrsn_h1,1/6/96,0.1,0.1,0.03,0.31,50,4527,1.1,1.1,0.2,5,96,20,18.2,7.7,112.8,96
andrsn_h1,1/7/96,0.1,0.1,0.03,0.31,96,9495,1.8,1.7,0.2,4.7,96,51.3,49.5,12,162.39,96
andrsn_h1,1/8/96,1.9,2.6,0.03,9.09,96,164628,0.5,0.5,0.1,3.6,96,97.6,35.9,14.9,184.5,96
andrsn_h1,1/9/96,0.8,0.5,0.31,2.66,96,69075,0.9,0.8,0.1,3.4,96,97.4,12.9,59.6,114.8,96
andrsn_h1,1/10/96,6.6,8.1,0.06,23.11,96,571500,1,1.2,0.1,6.2,96,70.1,31.6,27.3,138.6,96
andrsn_h1,1/11/96,19.6,12.3,5.13,42.5,96,1693143,0.4,0.3,0.2,1.6,96,30.4,6.8,21.5,43.1,96
andrsn_h1,1/12/96,7.6,6.8,1.08,31.4,96,656784,0.4,0.2,0.2,0.8,96,37.7,14.1,15.8,63.2,96
andrsn_h1,1/13/96,0.6,0.2,0.31,1.08,96,51057,0.8,0.7,0.1,2.3,96,85.6,11.1,63.5,105.1,96
andrsn_h1,1/14/96,0.4,0.3,0.14,1.08,96,36621,1.2,1.1,0.1,3.8,96,117.2,9.6,95,135.8,96
andrsn_h1,1/15/96,0.2,0.1,0.06,0.54,96,16929,1,0.8,0.2,3,96,108.5,23.5,74.5,149,96
andrsn_h1,1/16/96,1,1.1,0.03,4.67,96,84033,0.9,1.1,0.1,5.3,96,79.5,45.1,20.9,192.1,96
andrsn_h1,1/17/96,1.4,1.5,0.03,4.67,96,125082,1.5,1.8,0.1,6.9,96,102.4,29.8,51.9,153.7,96
andrsn_h1,1/18/96,1.8,1.5,0.14,6.09,96,156942,0.5,0.7,0.1,2.6,96,61.7,10.1,48.5,94.5,96
andrsn_h1,1/19/96,1.1,1.5,0.06,5.61,96,99090,1,1.6,0.1,6.9,96,65.4,16.5,46.9,112.8,96
andrsn_h1,1/20/96,0.5,0.6,0.03,4.25,96,41373,0.5,0.7,0.1,3.4,96,60.7,24.2,17.1,108.7,96
andrsn_h1,1/21/96,0.1,0.1,0,0.54,96,8064,0.8,1.2,0,3.5,96,29.2,14.8,16.3,82.3,96
andrsn_h1,1/22/96,0.7,0.7,0.03,2.32,58,38817,0.7,1.2,0,4.9,96,55.4,42.1,6.5,175.2,96
andrsn_h1,1/23/96,0.8,1.4,0.03,7.05,96,68490,0.5,1,0,4.8,96,49,24.6,13.6,97.2,96
andrsn_h1,1/24/96,0.5,2,0,11.92,96,46449,0.7,0.7,0,2.2,96,19.9,15.7,8.5,66.7,96
andrsn_h1,1/25/96,2.7,3.3,0.03,14.47,57,138258,0.3,0.5,0,2.5,96,61.7,28.9,10.6,132.1,96
andrsn_h1,1/26/96,1.4,2.3,0.03,11.33,94,121959,0.2,0.4,0,1.8,96,36.6,12.6,8.6,67.9,96
andrsn_h1,1/27/96,1.4,2.4,0,11.33,83,102105,0.6,1.2,0,5.3,96,41.2,13.8,22.9,73.2,96
andrsn_h1,1/28/96,2.3,4.1,0.03,16.48,96,195543,0.7,1.2,0,5.5,96,35.6,11.9,9.5,88.3,96
andrsn_h1,1/29/96,2,5.3,0.06,23.11,96,172260,0.4,0.6,0,2.1,96,35.8,24.6,8.9,84.6,96
andrsn_h1,1/30/96,3.8,6.5,0,22.34,89,303759,0.7,1,0,3.7,96,19,11.6,8.7,60.4,96
andrsn_h1,1/31/96,2.9,4.3,0.03,19.34,96,250011,0.2,0.4,0,2,96,37,9.6,22.5,71.5,96
andrsn_h1,2/1/96,1,1.3,0.03,7.05,88,76194,1,1.3,0,5.4,96,45.5,12.6,26.1,64.7,96
andrsn_h1,2/2/96,3.6,3.4,0.14,13.17,96,310869,0.2,0.4,0,1.7,96,50.3,10.5,33.9,67.1,96
andrsn_h1,2/3/96,4.9,1.8,1.98,11.33,96,420858,0.1,0.3,0,1.3,96,27.5,6.5,18.9,43.9,96
andrsn_h1,2/4/96,6,5.4,1.08,18.6,96,520902,0.2,0.3,0,0.9,96,23.5,7.4,12.8,35.1,96
andrsn_h1,2/5/96,3.8,6.2,0.54,25.49,96,332046,0.5,0.7,0,1.9,96,39.3,7.5,23.9,48.9,96
andrsn_h1,2/6/96,2.8,1.1,1.36,7.05,84,214911,0.3,0.3,0,1.1,96,41.9,4.1,31,51.5,96
andrsn_h1,2/7/96,1.7,2,0.03,11.92,77,119151,0.1,0.2,0,0.9,96,41.1,6.6,26.6,57.6,96
andrsn_h1,2/8/96,1,1,0.14,5.13,61,53235,0.1,0.1,0,0.5,96,32,24.8,9.4,189.5,91
andrsn_h1,2/9/96,0.4,1.2,0.03,5.13,21,8073,0.1,0.3,0,1.1,96,40.2,25.9,9.6,86.1,96
andrsn_h1,2/10/96,,,,,0,,0.3,0.6,0,1.8,66,91.9,4.1,83.8,98.4,66
andrsn_h1,12/3/96,3.2,2.3,0.03,7.33,39,111366,1,1,0.2,3,44,138.2,53.1,53.3,242.1,39
andrsn_h1,12/4/96,5.5,2.9,0.11,11.04,35,174375,0.7,0.7,0.1,2.9,96,59.7,6.1,47.8,74.5,96
andrsn_h1,12/5/96,8.9,4,0.45,17.3,37,297432,0.7,1,0.1,3.7,96,48.9,4.9,37.7,73.4,96
andrsn_h1,12/6/96,7.4,5.4,0.93,18.66,40,265401,0.9,0.5,0.3,1.7,96,56,13.4,38.5,77.9,62
andrsn_h1,12/7/96,10.7,6.4,0.68,32.76,39,376479,1.3,1.3,0.3,4.5,96,60.6,9.3,44,76.1,96
andrsn_h1,12/8/96,8.9,3.6,2.44,17.98,54,432351,1.1,0.9,0.3,3,96,34.4,4.5,27.1,46.2,96
andrsn_h1,12/9/96,10.1,3.9,2.44,23.02,63,570024,0.9,0.7,0.4,2.7,96,31.1,3.4,26.2,36.6,96
andrsn_h1,12/10/96,9.2,4.2,3.11,21.55,66,547470,1,0.7,0.4,2.6,96,30.7,3.2,25.4,35.2,96
andrsn_h1,12/11/96,12.4,2.5,8.86,17.3,51,570060,0.9,0.6,0.4,2.3,96,30.5,2.6,25.7,36.5,96
andrsn_h1,12/12/96,5.4,3.5,0.68,17.3,83,404667,0.7,0.2,0.3,1,96,37.1,4.5,30.2,44.2,96
andrsn_h1,12/13/96,,,,,0,,1.2,0.9,0.3,2.9,96,46.7,2.1,40.9,49.6,96
andrsn_h1,12/14/96,20.7,3,14.05,26.14,32,595026,1.1,0.6,0.2,2.5,96,45.3,9.6,30.2,57.6,96
andrsn_h1,12/15/96,19.3,12.5,3.45,50.69,96,1670625,0.9,0.6,0.4,2.3,96,43.2,7.4,33.2,59.4,96
andrsn_h1,12/16/96,45.8,13.5,28.54,80.99,74,3048885,0.9,0.6,0.3,2.3,96,27.1,5.7,21.3,39,96
andrsn_h1,12/17/96,34.6,10.8,22.29,62.38,84,2615706,0.7,0.4,0.3,1.6,96,31.4,8.6,20.9,49.4,96
andrsn_h1,12/18/96,20.6,7.4,8.86,41.82,96,1776501,0.5,0.3,0.3,1.7,96,29.4,3.9,22.6,35,96
andrsn_h1,12/19/96,15.3,7.3,5.49,39.02,96,1317708,0.6,0.3,0.2,1.1,96,37.2,3.6,29.6,43.2,96
andrsn_h1,12/20/96,11.1,3.4,3.45,20.08,96,960669,0.7,0.4,0.3,1.7,96,41.8,5.7,31.2,55.7,96
andrsn_h1,12/21/96,6.6,2.9,2.12,17.3,96,569583,0.8,0.7,0.3,3.9,96,44.7,4.2,34.6,50.4,96
andrsn_h1,12/22/96,4.8,3.6,0.93,22.29,96,412974,0.8,0.4,0.3,1.6,96,37,6.9,22.2,47.7,96
andrsn_h1,12/23/96,9.3,7.5,0.45,26.14,79,662625,0.8,1.1,0.1,5.7,96,32.1,15.9,11.2,100.1,96
andrsn_h1,12/24/96,16.8,10.4,3.11,42.79,96,1449090,0.7,0.5,0.2,1.9,96,27.6,5.1,17.4,40.6,96
andrsn_h1,12/25/96,22.2,12.9,5.49,48.68,96,1921905,0.7,0.5,0.2,2.1,96,20.1,2.3,17.3,25.6,96
andrsn_h1,12/26/96,21.2,7.7,8.86,48.68,74,1414449,0.7,0.5,0.2,2.6,96,22.9,4.1,17.5,29.7,96
andrsn_h1,12/27/96,10.7,5.8,3.45,35.4,96,926388,0.8,0.7,0.2,2.6,96,25.4,3.5,18.7,31.4,96
andrsn_h1,12/28/96,4.4,1.9,2.12,11.61,96,384039,0.6,0.5,0.2,1.8,96,38,4.9,30.7,46.5,96
andrsn_h1,12/29/96,17.8,9.5,1.53,34.52,96,1534320,1.5,2.2,0.2,9.4,96,32.3,10.5,18.7,51.1,96
andrsn_h1,12/30/96,14.3,6,4.64,32.76,96,1234368,1,1,0.2,3.8,96,24,1.9,19.9,26,96
andrsn_h1,12/31/96,13.2,7.8,2.44,28.54,96,1140390,0.6,0.6,0.2,2.5,96,25.5,1.4,23.3,28.4,96
andrsn_h1,1/1/97,20.3,12.6,4.22,46.67,96,1756503,0.7,0.7,0.2,2.5,96,28,3.5,22.9,33.5,96
andrsn_h1,1/2/97,17.2,4.5,9.37,31.91,96,1486152,0.6,0.4,0.2,1.8,96,28.9,2.5,24.1,32.6,96
andrsn_h1,1/3/97,14.3,8.1,5.04,35.4,96,1232964,0.8,0.7,0.1,2.4,96,33.3,4.4,25.6,39.5,96
andrsn_h1,1/4/97,26.8,13.1,9.91,50.69,96,2318094,0.7,0.6,0.2,2.2,96,27.8,2.3,24.5,32.4,96
andrsn_h1,1/5/97,25.8,9.5,10.48,41.82,96,2229030,0.6,0.6,0.1,2.1,96,28.1,3.2,23.2,35.1,96
andrsn_h1,1/6/97,26.4,10.7,9.37,48.68,96,2279142,0.6,0.6,0.2,2.1,96,26.1,1.8,23.7,30.4,96
andrsn_h1,1/7/97,26.6,10.1,12.2,50.69,96,2299815,0.6,0.5,0.2,2.1,96,41.5,9,27.4,55,96
andrsn_h1,1/8/97,9.7,4.9,2.75,21.55,96,837279,0.2,0,0.2,0.3,96,79.2,13.7,55.2,102.1,96
andrsn_h1,1/9/97,1.4,0.5,0.68,3.45,96,125199,0.2,0,0.2,0.3,96,122.4,14.2,102.3,146.9,96
andrsn_h1,1/10/97,1.1,0.7,0.68,3.45,96,94176,1,0.8,0.2,2.6,96,119.3,7.9,106.7,135.5,96
andrsn_h1,1/11/97,0.8,0.7,0.25,4.64,96,73413,0.6,0.5,0.2,3,96,128.5,28.9,64.4,175.7,96
andrsn_h1,1/12/97,0.9,1.3,0.25,5.04,42,34686,0.2,0,0.2,0.2,20,121,10.4,102,143.2,44
andrsn_h1,1/13/97,0.4,0.2,0.11,0.68,35,12312,,,,,0,141,28.8,107.8,202.8,12
andrsn_h1,1/14/97,1.6,1.2,0.45,5.49,62,86769,1.1,1,0.2,3.5,40,149.9,57.2,71.7,261.1,96
andrsn_h1,1/15/97,1.9,2.3,0.45,9.91,76,129636,1.1,1.3,0.3,5,96,114,31.7,78,181.1,96
andrsn_h1,1/16/97,15.4,16,2.12,89.68,46,638460,0.8,0.8,0.3,3.4,96,70.6,21.2,45.1,140,96
andrsn_h1,1/17/97,5.1,5.2,1.81,26.93,96,438633,0.5,0.4,0.3,1.9,96,58,10.9,39.3,89.2,96
andrsn_h1,1/18/97,3.3,3.2,0.68,17.98,96,283572,0.6,0.6,0.2,2.6,96,56.4,10.8,35,76.5,96
andrsn_h1,1/19/97,3.1,4.9,0.93,23.02,96,270207,1.1,0.9,0.3,4,96,69.1,21.4,36,106.4,96
andrsn_h1,1/20/97,1.2,0.7,0.45,2.75,96,99927,1.1,1.2,0.3,4.2,96,131.8,15.5,103.9,162.8,96
andrsn_h1,1/21/97,2,2.4,0.93,17.3,96,172350,0.9,0.7,0.3,3.3,96,106.4,25.3,75.8,155.3,96
andrsn_h1,1/22/97,1.5,3.2,0.45,17.98,96,131886,1.1,1,0.1,4,96,105.6,27,77,158.9,96
andrsn_h1,1/23/97,1.4,2.9,0.68,16.62,96,124758,0.9,0.9,0.2,3.6,96,103.4,16.7,82.8,147.9,96
andrsn_h1,1/24/97,1.8,3.2,0.68,17.3,96,156681,1.1,1,0.1,3.6,96,119.9,35.6,86.8,203.9,96
andrsn_h1,1/25/97,1.7,0.5,0.93,2.75,56,83376,0.5,0.4,0.3,1.5,56,122.2,34,84.4,178.6,56
andrsn_h1,11/9/97,0.1,0,0.11,0.11,3,297,0,0,0,0.05,3,29.2,1.9,27,30.33,3
andrsn_h1,11/10/97,0.5,0.4,0.03,1.22,96,40887,0,0,-0.17,0.05,96,27.9,2,23.67,32.76,96
andrsn_h1,11/11/97,3.8,15.4,0,121.94,84,284472,-0.5,0.7,-2.28,0.05,96,27.7,3,23.05,38.99,96
andrsn_h1,11/12/97,0,0,0,0.45,96,1125,-0.5,0.7,-1.94,0.05,96,29.3,2.9,23.44,36.44,96
andrsn_h1,11/13/97,0.3,0.7,0,4.63,96,25551,-0.5,0.8,-2.42,0.05,96,29.4,3.2,24.15,37.19,96
andrsn_h1,11/14/97,0.4,1.3,0,4.63,90,34173,-1.6,1.6,-3.63,0.05,96,29,2.3,24.05,34.5,96
andrsn_h1,11/15/97,8.3,19.5,0,73.77,82,615438,-0.3,0.5,-1.33,0.05,96,28.8,3,23.85,35.82,96
andrsn_h1,11/16/97,16.6,28.7,0,157.86,84,1254285,0,0,-0.05,0.05,96,27,1.7,23.79,30.88,96
andrsn_h1,11/17/97,5.4,10,0,34.5,66,320427,0,0,-0.05,0.14,96,27.4,4.2,23.88,46.32,96
andrsn_h1,11/18/97,54.1,30.7,26.92,150.09,45,2191662,0,0.1,-0.05,0.16,96,28.6,5.9,23.47,46,96
andrsn_h1,11/19/97,26.9,34.9,0,150.09,96,2321010,0,0.1,-0.05,0.16,96,30.8,8.3,23.6,52.91,96
andrsn_h1,11/20/97,0,0,0,0,68,0,0,0.1,-0.05,0.18,96,34.9,14.7,23.32,64.31,96
andrsn_h1,11/21/97,14,31.8,0,175.48,96,1207188,0.1,0.1,-0.05,0.52,96,70,56.2,23.52,175.1,96
andrsn_h1,11/22/97,30.5,13.2,8.33,51.71,48,1315719,0.4,0.2,0.28,1.09,96,62.3,4.5,54.15,72.72,96
andrsn_h1,11/23/97,18.2,6.9,6.85,38.1,59,967176,0.4,0.2,0.26,1.06,96,43.2,6.9,33.16,67.28,96
andrsn_h1,11/24/97,7.1,11.7,0,50.69,85,540126,0.6,0.3,0.26,1.6,96,42.2,4.4,37.08,52.63,96
andrsn_h1,11/25/97,5.1,7.8,0,19.37,96,444906,0.9,0.8,0.26,3.14,96,51.9,4.5,40.55,57.51,96
andrsn_h1,11/26/97,12.6,10.2,0,26.92,96,1085148,0.5,0.5,0.26,1.81,96,42.9,9.6,25.87,67.17,96
andrsn_h1,11/27/97,4.5,5.1,0.25,20.08,96,391410,0.5,0.2,0.23,1.46,96,47.2,7.9,37.79,63.49,96
andrsn_h1,11/28/97,0.2,0.4,0,2.11,72,14706,0.5,0.3,0.25,1.11,96,42.8,2.4,39.01,49.77,96
andrsn_h1,11/29/97,,,,,0,,0.4,0.1,0.29,0.62,96,32.3,10.4,20,50.54,96
andrsn_h1,11/30/97,,,,,0,,0.7,0.4,0.19,1.66,96,31.8,10.5,20.17,54.22,96
andrsn_h1,12/1/97,,,,,0,,0.7,0.7,0.19,3.08,96,64,11.6,41.32,77.08,96
andrsn_h1,12/2/97,,,,,0,,0.4,0.1,0.24,0.88,96,44.4,6.9,33.27,73.8,96
andrsn_h1,12/3/97,,,,,0,,0.6,0.3,0.3,1.36,96,76.4,22.5,47.28,100.4,96
andrsn_h1,12/4/97,,,,,0,,0.7,0.3,0.25,1.31,96,74.8,18,43.04,98.29,96
andrsn_h1,12/5/97,,,,,0,,1.3,1.3,0.29,4.9,96,94.5,26.8,39.26,122.2,96
andrsn_h1,12/6/97,,,,,0,,0.6,0.4,0.25,2.27,96,44.1,8.8,33.9,85.89,96
andrsn_h1,12/7/97,,,,,0,,0.4,0.1,0.25,0.72,96,100.6,21.4,43.83,127.7,96
andrsn_h1,12/8/97,,,,,0,,0.1,0.1,-0.05,0.3,96,37.5,29.6,20.97,124.8,96
andrsn_h1,12/9/97,,,,,0,,0.1,0.1,-0.05,0.33,96,28.8,4.9,20.01,43.01,96
andrsn_h1,12/10/97,,,,,0,,0.1,0.2,-0.24,0.37,96,29.8,6.6,19.16,47.11,96
andrsn_h1,12/11/97,,,,,0,,0,0,-0.05,0.05,96,25.1,2,19.44,29.44,96
andrsn_h1,12/12/97,,,,,0,,0,0.1,-0.05,0.23,96,26.1,3.4,17.36,34.27,96
andrsn_h1,12/13/97,,,,,0,,0.1,0.1,-0.05,0.31,96,31.9,8.7,20.25,55.84,96
andrsn_h1,12/14/97,,,,,0,,0.2,0.1,-0.05,0.36,96,33.5,8.2,22.36,45.8,96
andrsn_h1,12/15/97,,,,,0,,0.2,0.2,-0.05,0.5,96,30.4,6.7,20.22,40.68,96
andrsn_h1,12/16/97,,,,,0,,1.1,1.2,0.23,5.21,96,42.3,5.3,33.95,57.56,96